Location: Southlake
(32.9412°N, 97.1342°W)
Time: 19:23:53
(UTC+00:00)

Tiangong - Visible Passes

Search period start: 08 December 2022 00:00
Search period end: 18 December 2022 00:00
Orbit: 386 x 392 km, 41.5° (Epoch: 08 December)

Date Brightness Start Highest point End Pass type
(mag) Time Alt. Az. Time Alt. Az. Time Alt. Az.
08 Dec -0.6 00:28:42 10° NW 00:31:15 21° NNE 00:31:42 21° NNE visible
09 Dec -0.4 01:07:11 10° NW 01:08:50 26° NW 01:08:50 26° NW visible
10 Dec -1.1 00:09:04 10° NW 00:11:55 29° NNE 00:13:45 17° ENE visible
10 Dec 1.3 01:45:51 10° WNW 01:46:05 11° WNW 01:46:05 11° WNW visible
11 Dec -2.3 00:47:30 10° WNW 00:50:41 89° NNE 00:51:09 62° ESE visible
11 Dec -1.8 23:49:14 10° NW 23:52:20 49° NNE 23:55:26 10° E visible
12 Dec 0.4 01:26:36 10° W 01:28:47 21° SW 01:28:47 21° SW visible
13 Dec -0.9 00:27:49 10° WNW 00:30:51 41° SSW 00:33:51 10° SE visible
15 Dec 0.8 00:08:24 10° W 00:10:45 19° SW 00:13:06 10° S visible
